�N����,�����b,�ŏ������i�x�j,���ϕ����i�x�j,�ő啗���i�x�j,�ŏ�����(m/s),���ϕ���(m/s),�ő啗��(m/s),�C��(���j,���x�i���j,�C��(hPa),�~�J��(mm),�~�J����(�b�j,�~�J���x(mm/h),�~�Ђ傤��(hit/���u),�~�Ђ傤����(�b�j,�~�Ђ傤���x(hit/���uh),�q�[�^���x(���j,�q�[�^�[�d���iV),�d���d���iV),�Q�Ɠd���iV)
2009/11/01,00:00:01,302,121,277,0.1,5.3,10.7,24.5,88.3,1008.1,0.00,90,0.0,0.0,0,0.0,23.6,0.0,11.9,3.473
2009/11/01,00:10:01,277,91,275,0.0,5.6,8.0,24.5,88.4,1008.0,0.00,0,0.0,0.0,0,0.0,23.4,0.0,12.1,3.470
2009/11/01,00:20:01,259,73,209,0.1,5.4,8.0,24.5,88.5,1008.0,0.00,0,0.0,0.0,0,0.0,23.4,0.0,11.8,3.470
2009/11/01,00:30:01,255,75,238,0.1,5.5,11.5,24.4,88.5,1007.9,0.00,0,0.0,0.0,0,0.0,23.4,0.0,11.8,3.472
2009/11/01,00:40:01,256,74,255,0.1,5.3,9.9,24.4,88.3,1007.8,0.00,0,0.0,0.0,0,0.0,23.3,0.0,11.8,3.470
2009/11/01,00:50:01,252,72,244,0.2,5.8,9.6,24.4,87.9,1007.8,0.00,0,0.0,0.0,0,0.0,23.4,0.0,11.5,3.470
2009/11/01,01:00:01,308,103,277,0.1,5.5,9.7,24.3,87.7,1007.8,0.00,0,0.0,0.0,0,0.0,23.4,0.0,11.9,3.470
2009/11/01,01:10:01,311,132,309,0.1,6.4,11.4,24.4,87.6,1007.7,0.00,0,0.0,0.0,0,0.0,23.6,0.0,11.5,3.470
2009/11/01,01:20:01,319,140,319,0.1,5.2,8.7,24.4,87.6,1007.7,0.00,0,0.0,0.0,0,0.0,23.4,0.0,11.7,3.469
2009/11/01,01:30:01,324,144,323,0.1,5.8,8.5,24.4,87.3,1007.6,0.00,0,0.0,0.0,0,0.0,23.4,0.0,11.6,3.472
2009/11/01,01:40:01,20,168,326,0.2,6.6,12.8,24.4,87.4,1007.5,0.00,0,0.0,0.0,0,0.0,23.4,0.0,11.7,3.470
2009/11/01,01:50:01,25,160,327,0.2,5.6,12.5,24.4,87.6,1007.4,0.00,0,0.0,0.0,0,0.0,23.4,0.0,11.9,3.470
2009/11/01,02:00:01,24,164,327,0.2,5.5,9.1,24.4,87.5,1007.3,0.00,0,0.0,0.0,0,0.0,23.4,0.0,12.0,3.472
2009/11/01,02:10:01,15,155,327,0.1,5.1,8.6,24.4,87.5,1007.3,0.00,0,0.0,0.0,0,0.0,23.3,0.0,12.2,3.470
2009/11/01,02:20:01,24,172,327,0.0,5.9,8.3,24.3,87.5,1007.3,0.00,0,0.0,0.0,0,0.0,23.4,0.0,12.1,3.473
2009/11/01,02:30:01,11,178,327,0.1,4.8,11.0,24.5,87.6,1007.2,0.00,0,0.0,0.0,0,0.0,23.4,0.0,12.1,3.470
2009/11/01,02:40:01,86,261,36,0.1,4.9,8.1,24.5,87.5,1007.2,0.00,0,0.0,0.0,0,0.0,23.6,0.0,11.9,3.472
2009/11/01,02:50:01,89,235,37,0.0,2.9,7.8,24.4,87.5,1007.0,0.00,0,0.0,0.0,0,0.0,23.6,0.0,12.1,3.472
2009/11/01,03:00:01,89,254,42,0.0,3.5,7.2,24.4,87.6,1007.0,0.00,0,0.0,0.0,0,0.0,23.4,0.0,11.9,3.473
2009/11/01,03:10:01,114,292,100,0.1,5.2,7.3,24.5,87.9,1006.9,0.00,0,0.0,0.0,0,0.0,23.4,0.0,12.1,3.473
2009/11/01,03:20:01,126,300,119,0.1,4.9,7.4,24.3,87.8,1006.9,0.00,0,0.0,0.0,0,0.0,23.3,0.0,11.9,3.470
2009/11/01,03:30:01,124,300,112,0.1,4.8,7.2,24.4,88.1,1006.9,0.00,0,0.0,0.0,0,0.0,23.3,0.0,11.8,3.472
2009/11/01,03:40:01,122,302,121,0.1,4.9,7.4,24.3,88.2,1006.8,0.00,0,0.0,0.0,0,0.0,23.1,0.0,12.0,3.472
2009/11/01,03:50:01,132,310,130,0.3,5.4,7.3,24.3,88.3,1006.8,0.00,0,0.0,0.0,0,0.0,23.3,0.0,11.5,3.472
2009/11/01,04:00:01,146,323,133,0.4,5.5,7.2,24.4,88.4,1006.8,0.00,0,0.0,0.0,0,0.0,23.1,0.0,11.9,3.472
2009/11/01,04:10:01,164,346,163,0.2,5.3,7.1,24.5,88.4,1006.7,0.00,0,0.0,0.0,0,0.0,23.4,0.0,12.1,3.470
2009/11/01,04:20:01,176,356,171,0.2,5.6,7.0,24.5,88.2,1006.6,0.00,0,0.0,0.0,0,0.0,23.4,0.0,12.1,3.470
2009/11/01,04:30:01,159,331,154,0.1,5.5,7.4,24.6,88.4,1006.6,0.12,120,4.7,0.0,0,0.0,23.6,0.0,11.7,3.472
2009/11/01,04:40:01,150,305,102,0.0,3.8,11.2,24.6,88.4,1006.7,0.24,390,0.0,0.0,0,0.0,23.4,0.0,11.7,3.472
2009/11/01,04:50:01,134,277,90,0.0,3.0,7.4,24.7,88.6,1006.7,0.00,40,0.0,0.0,0,0.0,23.6,0.0,11.8,3.472
2009/11/01,05:00:01,128,300,116,0.0,4.8,7.5,24.8,88.9,1006.7,0.00,0,0.0,0.0,0,0.0,23.8,0.0,11.3,3.470
2009/11/01,05:10:01,138,291,94,0.4,5.4,7.7,24.7,89.0,1006.8,0.00,0,0.0,0.0,0,0.0,23.6,0.0,11.6,3.470
2009/11/01,05:20:01,111,285,109,0.1,5.4,13.0,24.6,89.2,1006.8,0.01,40,0.0,0.0,0,0.0,23.8,0.0,11.8,3.469
2009/11/01,05:30:01,91,272,78,0.1,5.4,9.4,24.6,89.4,1006.9,0.00,0,0.0,0.0,0,0.0,23.6,0.0,11.9,3.472
2009/11/01,05:40:01,71,243,67,0.0,4.9,9.9,24.5,89.4,1006.7,0.00,0,0.0,0.0,0,0.0,23.9,0.0,11.9,3.470
2009/11/01,05:50:01,87,276,77,0.1,6.1,10.1,24.2,89.2,1006.6,0.00,0,0.0,0.0,0,0.0,23.3,0.0,11.9,3.470
2009/11/01,06:00:01,193,344,156,0.1,5.6,9.6,24.0,88.9,1006.8,0.00,0,0.0,0.0,0,0.0,22.9,0.0,11.6,3.472
2009/11/01,06:10:01,188,5,184,0.1,5.7,8.5,23.9,89.0,1006.8,0.00,0,0.0,0.0,0,0.0,22.7,0.0,11.9,3.470
2009/11/01,06:20:01,189,358,172,0.2,5.6,9.0,23.9,89.2,1007.0,0.00,0,0.0,0.0,0,0.0,22.6,0.0,11.8,3.472
2009/11/01,06:30:01,189,4,160,0.2,6.0,9.0,24.1,89.1,1007.1,0.00,0,0.0,0.0,0,0.0,22.9,0.0,11.5,3.472
2009/11/01,06:40:01,310,53,209,0.0,6.2,8.7,24.1,88.9,1007.1,0.00,0,0.0,0.0,0,0.0,23.1,0.0,11.9,3.470
2009/11/01,06:50:01,259,74,209,0.2,6.0,8.1,24.1,88.9,1007.1,0.00,0,0.0,0.0,0,0.0,23.1,0.0,11.8,3.470
2009/11/01,07:00:01,260,82,259,0.2,6.4,8.5,24.2,89.1,1007.2,0.00,0,0.0,0.0,0,0.0,23.1,0.0,12.1,3.472
2009/11/01,07:10:01,304,124,296,0.2,6.7,9.2,24.3,88.9,1007.1,0.00,0,0.0,0.0,0,0.0,23.3,0.0,11.7,3.470
2009/11/01,07:20:01,318,139,316,0.4,7.1,9.0,24.3,88.9,1007.2,0.00,0,0.0,0.0,0,0.0,23.3,0.0,11.8,3.472
2009/11/01,07:30:01,326,147,323,0.3,6.6,8.9,24.3,88.8,1007.2,0.00,0,0.0,0.0,0,0.0,23.6,0.0,12.1,3.470
2009/11/01,07:40:01,16,164,326,0.2,6.4,9.1,24.6,88.6,1007.4,0.00,0,0.0,0.0,0,0.0,24.4,0.0,11.9,3.470
2009/11/01,07:50:01,11,172,329,0.2,6.1,13.5,24.7,88.3,1007.4,0.00,0,0.0,0.0,0,0.0,24.8,0.0,11.8,3.470
2009/11/01,08:00:01,83,231,37,0.0,5.7,13.3,25.2,87.6,1007.5,0.00,0,0.0,0.0,0,0.0,26.4,0.0,11.8,3.469
2009/11/01,08:10:01,17,185,359,0.2,4.6,8.5,25.3,86.4,1007.5,0.00,0,0.0,0.0,0,0.0,27.3,0.0,11.6,3.469
2009/11/01,08:20:01,313,123,306,0.1,4.5,8.7,25.7,85.3,1007.7,0.00,0,0.0,0.0,0,0.0,28.3,0.0,11.6,3.469
2009/11/01,08:30:01,254,62,248,0.1,5.2,8.6,25.9,84.0,1007.8,0.00,0,0.0,0.0,0,0.0,29.0,0.0,11.8,3.469
2009/11/01,08:40:01,248,53,224,0.2,5.9,8.7,25.9,82.9,1007.9,0.00,0,0.0,0.0,0,0.0,29.1,0.0,11.7,3.469
2009/11/01,08:50:01,254,60,219,0.1,5.9,9.2,26.2,82.6,1007.9,0.00,0,0.0,0.0,0,0.0,29.6,0.0,12.2,3.469
2009/11/01,09:00:01,206,19,201,0.2,5.8,9.2,26.3,83.3,1008.0,0.00,0,0.0,0.0,0,0.0,29.3,0.0,12.0,3.469
2009/11/01,09:10:01,183,2,172,0.3,5.7,9.2,26.4,83.1,1008.1,0.00,0,0.0,0.0,0,0.0,29.5,0.0,12.1,3.468
2009/11/01,09:20:01,195,2,163,0.3,5.6,9.8,26.5,83.3,1008.2,0.00,0,0.0,0.0,0,0.0,29.6,0.0,11.1,3.467
2009/11/01,09:30:01,186,359,162,0.3,5.6,10.2,26.6,82.7,1008.3,0.00,0,0.0,0.0,0,0.0,29.5,0.0,11.7,3.468
2009/11/01,09:40:01,200,359,166,0.3,5.6,10.5,26.7,82.7,1008.3,0.00,0,0.0,0.0,0,0.0,29.5,0.0,12.1,3.469
2009/11/01,09:50:01,188,359,162,0.4,5.5,10.4,26.5,82.2,1008.3,0.00,0,0.0,0.0,0,0.0,29.3,0.0,12.1,3.469
2009/11/01,10:00:01,189,357,165,0.2,5.4,10.4,26.6,82.6,1008.3,0.00,0,0.0,0.0,0,0.0,29.3,0.0,11.6,3.468
2009/11/01,10:10:01,189,349,163,0.2,5.8,10.3,26.8,82.7,1008.2,0.00,0,0.0,0.0,0,0.0,30.0,0.0,11.9,3.469
2009/11/01,10:20:01,184,351,163,0.4,5.8,10.3,27.0,82.3,1008.2,0.00,0,0.0,0.0,0,0.0,30.1,0.0,12.0,3.468
2009/11/01,10:30:01,198,353,165,0.5,5.9,10.3,27.0,81.5,1008.1,0.00,0,0.0,0.0,0,0.0,30.5,0.0,12.0,3.468
2009/11/01,10:40:01,180,349,162,0.7,5.7,10.5,27.2,81.3,1008.0,0.00,0,0.0,0.0,0,0.0,30.8,0.0,11.5,3.468
2009/11/01,10:50:01,189,353,163,0.5,5.7,10.3,27.4,79.6,1007.9,0.00,0,0.0,0.0,0,0.0,31.0,0.0,11.9,3.468
2009/11/01,11:00:01,194,348,162,0.1,5.4,10.6,27.4,80.4,1007.9,0.00,0,0.0,0.0,0,0.0,30.8,0.0,11.2,3.468
2009/11/01,11:10:01,201,345,166,0.2,5.6,10.7,27.3,79.9,1007.8,0.00,0,0.0,0.0,0,0.0,30.6,0.0,11.5,3.468
2009/11/01,11:20:01,166,344,162,0.4,5.8,10.3,27.3,79.9,1007.7,0.00,0,0.0,0.0,0,0.0,30.5,0.0,11.9,3.468
2009/11/01,11:30:01,164,343,160,0.1,5.6,10.4,27.7,80.5,1007.6,0.00,0,0.0,0.0,0,0.0,31.3,0.0,11.9,3.468
2009/11/01,11:40:01,153,328,145,0.1,4.2,10.3,27.9,78.2,1007.5,0.00,0,0.0,0.0,0,0.0,32.3,0.0,11.8,3.469
2009/11/01,11:50:01,149,330,148,0.2,4.9,10.0,27.9,78.3,1007.4,0.00,0,0.0,0.0,0,0.0,31.8,0.0,12.1,3.468
2009/11/01,12:00:01,154,332,152,0.0,5.2,9.5,27.8,77.3,1007.3,0.00,0,0.0,0.0,0,0.0,31.3,0.0,12.0,3.468
2009/11/01,12:10:01,156,337,154,0.2,5.6,10.9,27.7,78.2,1007.1,0.00,0,0.0,0.0,0,0.0,31.0,0.0,11.8,3.467
2009/11/01,12:20:01,160,342,159,0.1,5.4,9.9,28.0,77.9,1007.0,0.00,0,0.0,0.0,0,0.0,31.5,0.0,11.5,3.465
2009/11/01,12:30:01,199,356,166,0.1,5.4,11.0,27.9,77.9,1006.8,0.00,0,0.0,0.0,0,0.0,31.5,0.0,12.1,3.467
2009/11/01,12:40:01,171,348,168,0.3,5.4,11.5,28.0,78.7,1006.7,0.00,0,0.0,0.0,0,0.0,31.5,0.0,11.7,3.468
2009/11/01,12:50:01,154,334,154,0.1,4.5,11.0,28.1,78.5,1006.7,0.00,0,0.0,0.0,0,0.0,31.5,0.0,11.9,3.468
2009/11/01,13:00:01,156,331,152,0.0,4.5,11.1,28.0,77.1,1006.5,0.00,0,0.0,0.0,0,0.0,31.6,0.0,11.8,3.468
2009/11/01,13:10:01,134,311,131,0.0,5.3,10.3,27.5,78.4,1006.4,0.00,0,0.0,0.0,0,0.0,30.0,0.0,11.5,3.468
2009/11/01,13:20:01,117,296,112,0.0,5.9,10.6,27.3,79.6,1006.2,0.00,0,0.0,0.0,0,0.0,28.6,0.0,11.9,3.470
2009/11/01,13:30:01,117,295,116,0.1,4.8,11.9,27.0,80.0,1006.0,0.00,0,0.0,0.0,0,0.0,28.5,0.0,11.7,3.468
2009/11/01,13:40:01,125,306,123,0.1,5.0,12.7,26.8,82.0,1005.9,0.00,0,0.0,0.0,0,0.0,27.4,0.0,12.0,3.468
2009/11/01,13:50:01,124,303,123,0.1,4.8,12.5,26.8,82.6,1005.8,0.00,0,0.0,0.0,0,0.0,27.9,0.0,11.5,3.468
2009/11/01,14:00:01,115,294,114,0.1,4.9,10.4,27.1,80.8,1005.7,0.00,0,0.0,0.0,0,0.0,29.6,0.0,11.8,3.468
2009/11/01,14:10:01,106,286,105,0.0,4.8,12.1,26.6,79.3,1005.6,0.00,0,0.0,0.0,0,0.0,29.0,0.0,12.1,3.469
2009/11/01,14:20:01,100,277,99,0.1,4.8,9.5,26.8,79.7,1005.5,0.00,0,0.0,0.0,0,0.0,28.8,0.0,12.2,3.469
2009/11/01,14:30:01,91,272,91,0.1,4.8,11.6,26.5,78.2,1005.6,0.00,0,0.0,0.0,0,0.0,29.1,0.0,12.1,3.465
2009/11/01,14:40:01,74,245,39,0.0,4.9,13.3,26.2,79.2,1005.5,0.00,0,0.0,0.0,0,0.0,28.1,0.0,11.8,3.472
2009/11/01,14:50:01,66,223,43,0.0,4.5,12.3,25.8,81.2,1005.4,0.00,60,0.2,0.0,0,0.0,26.9,0.0,11.9,3.469
2009/11/01,15:00:01,86,268,78,0.1,4.4,11.8,25.4,82.8,1005.5,0.01,130,0.0,0.0,0,0.0,25.3,0.0,11.8,3.469
2009/11/01,15:10:01,118,296,115,0.1,3.7,12.0,25.2,82.8,1005.6,0.00,0,0.0,0.0,0,0.0,24.8,0.0,11.8,3.470
2009/11/01,15:20:01,107,286,105,0.1,4.7,12.0,25.0,83.9,1005.6,0.07,270,1.2,0.0,0,0.0,24.3,0.0,11.7,3.470
2009/11/01,15:30:01,78,257,74,0.0,4.6,12.2,25.0,85.8,1005.9,0.00,40,0.0,0.0,0,0.0,23.9,0.0,11.7,3.469
2009/11/01,15:40:01,93,268,88,0.2,4.9,24.3,24.1,86.5,1005.8,0.00,0,0.0,0.0,0,0.0,23.3,0.0,11.7,3.472
2009/11/01,15:50:01,100,282,98,0.1,4.9,23.1,23.9,87.8,1005.6,0.06,230,1.9,0.0,0,0.0,22.9,0.0,11.8,3.472
2009/11/01,16:00:01,112,294,111,0.1,4.3,23.2,23.3,88.4,1005.4,0.63,590,4.0,0.0,0,0.0,22.4,0.0,11.9,3.472
2009/11/01,16:10:01,135,311,132,0.2,4.3,20.4,23.2,88.7,1006.0,0.16,410,0.0,0.0,0,0.0,22.2,0.0,12.1,3.473
2009/11/01,16:20:01,119,299,119,0.1,4.3,22.3,23.2,89.2,1006.0,0.00,0,0.0,0.0,0,0.0,22.2,0.0,11.6,3.470
2009/11/01,16:30:01,110,288,109,0.2,4.5,22.6,23.3,89.3,1006.2,0.01,30,0.1,0.0,0,0.0,22.7,0.0,11.8,3.470
2009/11/01,16:40:01,103,282,103,0.0,4.0,24.2,23.3,89.3,1006.4,0.11,460,1.5,0.0,0,0.0,22.4,0.0,11.5,3.472
2009/11/01,16:50:01,115,296,113,0.1,4.2,16.8,23.2,89.4,1006.5,0.08,330,0.1,0.0,0,0.0,22.2,0.0,11.9,3.468
2009/11/01,17:00:01,107,283,104,0.1,4.0,25.5,22.7,89.0,1006.7,0.00,70,0.0,0.0,0,0.0,21.7,0.0,11.8,3.472
2009/11/01,17:10:01,81,258,79,0.2,4.1,18.5,22.9,88.5,1006.8,0.00,0,0.0,0.0,0,0.0,21.9,0.0,11.6,3.472
2009/11/01,17:20:01,81,262,79,0.2,3.8,20.3,23.1,87.9,1006.8,0.00,0,0.0,0.0,0,0.0,22.1,0.0,11.8,3.470
2009/11/01,17:30:01,83,261,81,0.1,3.7,21.8,23.3,87.5,1006.9,0.00,0,0.0,0.0,0,0.0,22.4,0.0,11.7,3.472
2009/11/01,17:40:01,108,291,106,0.0,4.6,25.9,23.2,87.3,1006.8,0.00,0,0.0,0.0,0,0.0,22.2,0.0,11.5,3.472
2009/11/01,17:50:01,164,336,146,0.2,6.9,27.9,23.1,87.0,1006.9,0.00,0,0.0,0.0,0,0.0,22.2,0.0,11.8,3.472
2009/11/01,18:00:01,144,319,133,0.2,5.4,26.1,23.0,87.6,1007.0,0.01,20,0.0,0.0,0,0.0,21.9,0.0,11.6,3.473
2009/11/01,18:10:01,128,305,116,0.0,4.8,25.3,22.9,86.7,1007.3,0.00,0,0.0,0.0,0,0.0,21.7,0.0,11.6,3.473
2009/11/01,18:20:01,129,310,128,0.0,4.0,23.0,22.7,86.5,1007.5,0.00,50,0.1,0.0,0,0.0,21.7,0.0,11.6,3.472
2009/11/01,18:30:01,122,301,121,0.1,3.5,21.1,22.8,86.3,1007.7,0.01,180,0.0,0.0,0,0.0,21.6,0.0,11.6,3.470
2009/11/01,18:40:01,106,284,104,0.1,3.6,23.1,22.8,86.6,1007.8,0.00,20,0.0,0.0,0,0.0,21.9,0.0,11.7,3.472
2009/11/01,18:50:01,110,285,108,0.1,4.1,23.4,22.9,87.6,1008.0,0.02,140,1.0,0.0,0,0.0,21.7,0.0,11.7,3.473
2009/11/01,19:00:01,106,289,106,0.1,4.0,23.1,22.6,87.6,1008.3,0.10,300,0.0,0.0,0,0.0,21.4,0.0,11.8,3.470
2009/11/01,19:10:01,103,282,102,0.0,3.9,20.7,22.6,87.9,1008.0,0.26,330,1.8,0.0,0,0.0,21.4,0.0,11.8,3.472
2009/11/01,19:20:01,98,273,96,0.1,3.7,14.8,22.3,88.2,1008.4,0.02,170,0.2,0.0,0,0.0,21.2,0.0,12.1,3.472
2009/11/01,19:30:01,75,252,67,0.0,4.1,12.9,22.5,88.7,1008.5,0.01,40,0.0,0.0,0,0.0,21.4,0.0,11.9,3.472
2009/11/01,19:40:01,79,260,77,0.1,3.7,14.3,22.5,88.9,1008.7,0.01,100,0.0,0.0,0,0.0,21.6,0.0,11.6,3.472
2009/11/01,19:50:01,85,265,84,0.1,3.9,14.6,22.5,88.9,1008.9,0.01,90,0.0,0.0,0,0.0,21.4,0.0,11.8,3.470
2009/11/01,20:00:01,89,270,88,0.0,3.7,18.3,22.3,88.6,1008.8,0.00,80,0.2,0.0,0,0.0,21.4,0.0,11.8,3.472
2009/11/01,20:10:01,96,276,94,0.2,4.6,21.4,22.1,88.2,1009.1,0.13,330,3.7,0.0,0,0.0,21.2,0.0,11.7,3.472
2009/11/01,20:20:01,103,282,101,0.1,3.8,16.3,21.6,88.7,1009.1,0.09,290,0.0,0.0,0,0.0,20.7,0.0,12.1,3.472
2009/11/01,20:30:01,108,286,104,0.1,3.7,19.0,21.7,87.9,1009.2,0.00,0,0.0,0.0,0,0.0,20.7,0.0,11.8,3.472
2009/11/01,20:40:01,115,292,113,0.1,3.8,21.0,21.8,88.4,1009.5,0.00,10,0.0,0.0,0,0.0,20.9,0.0,11.9,3.473
2009/11/01,20:50:01,126,307,123,0.1,5.0,18.6,21.8,88.8,1009.7,0.22,490,0.1,0.0,0,0.0,20.9,0.0,11.6,3.472
2009/11/01,21:00:01,126,302,121,0.0,4.0,21.3,21.1,87.9,1009.5,0.07,350,5.4,0.0,0,0.0,20.4,0.0,11.8,3.472
2009/11/01,21:10:01,122,309,121,0.0,4.8,18.7,21.2,87.2,1009.7,0.00,0,0.0,0.0,0,0.0,20.2,0.0,11.8,3.473
2009/11/01,21:20:01,155,329,150,0.1,6.9,17.9,21.2,85.0,1009.8,0.00,0,0.0,0.0,0,0.0,20.2,0.0,11.8,3.472
2009/11/01,21:30:01,112,291,107,0.1,3.6,21.4,21.5,81.9,1009.9,0.00,0,0.0,0.0,0,0.0,20.9,0.0,11.9,3.474
2009/11/01,21:40:01,111,291,111,0.1,3.7,19.8,21.9,82.4,1010.1,0.00,0,0.0,0.0,0,0.0,20.7,0.0,11.9,3.472
2009/11/01,21:50:01,125,303,123,0.0,4.5,21.9,22.1,82.0,1010.1,0.00,0,0.0,0.0,0,0.0,21.2,0.0,11.7,3.470
2009/11/01,22:00:01,124,307,123,0.2,5.8,16.6,22.3,82.6,1010.1,0.00,10,0.0,0.0,0,0.0,21.2,0.0,12.0,3.472
2009/11/01,22:10:01,121,292,117,0.0,4.4,15.2,22.1,84.7,1010.2,0.18,450,0.0,0.0,0,0.0,20.7,0.0,12.0,3.473
2009/11/01,22:20:01,86,270,84,0.1,3.7,24.8,22.0,81.6,1010.0,0.00,40,0.0,0.0,0,0.0,20.9,0.0,11.9,3.470
2009/11/01,22:30:01,144,307,120,0.0,5.1,23.8,22.6,75.1,1010.2,0.00,0,0.0,0.0,0,0.0,21.4,0.0,11.8,3.470
2009/11/01,22:40:01,149,326,143,0.2,5.8,24.1,23.2,76.1,1010.3,0.00,0,0.0,0.0,0,0.0,22.1,0.0,11.7,3.472
2009/11/01,22:50:01,152,326,145,0.1,5.4,24.2,23.1,72.0,1010.3,0.00,0,0.0,0.0,0,0.0,22.1,0.0,11.8,3.472
2009/11/01,23:00:01,156,335,153,0.0,6.4,22.3,23.2,70.1,1010.3,0.00,0,0.0,0.0,0,0.0,22.2,0.0,11.8,3.470
2009/11/01,23:10:01,153,324,136,0.2,5.3,22.2,23.2,73.5,1010.2,0.00,0,0.0,0.0,0,0.0,21.4,0.0,12.1,3.470
2009/11/01,23:20:01,145,318,133,0.2,4.7,21.7,22.9,70.0,1010.2,0.00,0,0.0,0.0,0,0.0,22.1,0.0,11.9,3.472
2009/11/01,23:30:01,148,323,140,0.1,4.5,20.9,22.9,71.4,1010.2,0.00,0,0.0,0.0,0,0.0,22.1,0.0,11.7,3.472
2009/11/01,23:40:01,135,313,132,0.0,4.2,20.9,23.1,70.8,1010.2,0.00,0,0.0,0.0,0,0.0,22.7,0.0,11.9,3.470
2009/11/01,23:50:01,152,326,140,0.0,4.8,18.7,23.1,71.0,1010.1,0.00,60,0.0,0.0,0,0.0,22.1,0.0,12.0,3.473
2009/11/02,00:00:01,133,314,132,0.2,4.6,20.6,22.8,72.0,1010.3,0.00,0,0.0,0.0,0,0.0,21.9,0.0,11.8,3.472
2009/11/02,00:10:01,155,331,152,0.3,5.0,21.0,22.9,71.5,1010.3,0.00,0,0.0,0.0,0,0.0,21.9,0.0,11.7,3.470
2009/11/02,00:20:01,152,326,144,0.1,4.6,19.8,22.9,72.0,1010.5,0.00,0,0.0,0.0,0,0.0,22.2,0.0,12.1,3.470
2009/11/02,00:30:01,153,326,144,0.1,4.7,19.0,22.9,69.8,1010.6,0.00,0,0.0,0.0,0,0.0,22.2,0.0,11.8,3.470
2009/11/02,00:40:01,156,325,138,0.1,4.5,16.4,22.9,67.1,1010.6,0.00,0,0.0,0.0,0,0.0,22.1,0.0,11.8,3.472
2009/11/02,00:50:01,144,321,138,0.3,4.4,17.0,23.0,70.3,1010.7,0.00,0,0.0,0.0,0,0.0,22.2,0.0,11.8,3.472
2009/11/02,01:00:01,132,313,131,0.2,4.7,19.0,22.6,72.4,1010.6,0.00,0,0.0,0.0,0,0.0,21.9,0.0,12.0,3.472
2009/11/02,01:10:01,152,328,138,0.1,5.0,17.8,22.6,72.2,1010.6,0.00,0,0.0,0.0,0,0.0,21.9,0.0,11.8,3.472
2009/11/02,01:20:01,137,317,136,0.1,5.1,18.9,22.4,71.5,1010.6,0.00,0,0.0,0.0,0,0.0,21.9,0.0,11.8,3.472
2009/11/02,01:30:01,141,318,137,0.2,4.8,17.8,22.4,71.1,1010.3,0.00,0,0.0,0.0,0,0.0,21.7,0.0,11.8,3.470
2009/11/02,01:40:01,127,308,126,0.3,5.2,22.0,22.4,70.5,1010.6,0.00,0,0.0,0.0,0,0.0,21.6,0.0,11.6,3.470
2009/11/02,01:50:01,126,306,123,0.1,4.8,17.8,22.4,70.2,1010.6,0.00,0,0.0,0.0,0,0.0,21.7,0.0,12.0,3.472
2009/11/02,02:00:01,135,313,132,0.1,4.9,24.0,22.3,71.3,1010.6,0.00,0,0.0,0.0,0,0.0,21.4,0.0,11.8,3.470
2009/11/02,02:10:01,133,311,132,0.3,5.3,19.5,22.3,71.6,1010.6,0.00,0,0.0,0.0,0,0.0,21.6,0.0,11.4,3.472
2009/11/02,02:20:01,127,308,123,0.1,5.1,23.1,22.3,70.7,1010.5,0.00,0,0.0,0.0,0,0.0,21.6,0.0,11.9,3.472
2009/11/02,02:30:01,126,305,124,0.1,4.9,18.2,22.2,70.7,1010.4,0.00,0,0.0,0.0,0,0.0,21.4,0.0,11.7,3.472
2009/11/02,02:40:01,128,310,128,0.1,4.7,14.9,22.2,69.2,1010.3,0.00,0,0.0,0.0,0,0.0,21.6,0.0,11.5,3.472
2009/11/02,02:50:01,137,315,135,0.2,5.2,18.5,22.3,69.5,1010.1,0.00,0,0.0,0.0,0,0.0,21.4,0.0,11.6,3.472
2009/11/02,03:00:01,139,319,138,0.1,5.0,24.3,22.3,67.2,1010.3,0.00,0,0.0,0.0,0,0.0,21.4,0.0,12.0,3.470
2009/11/02,03:10:01,138,317,135,0.2,5.1,22.0,22.3,67.5,1010.4,0.00,0,0.0,0.0,0,0.0,21.4,0.0,11.6,3.472
2009/11/02,03:20:01,134,313,133,0.0,4.7,18.6,22.4,67.8,1010.5,0.00,0,0.0,0.0,0,0.0,21.4,0.0,11.5,3.470
2009/11/02,03:30:01,133,314,132,0.0,4.7,19.1,22.2,67.9,1010.7,0.00,0,0.0,0.0,0,0.0,21.4,0.0,12.1,3.473
2009/11/02,03:40:01,142,320,141,0.1,4.9,20.0,22.2,67.9,1010.4,0.00,0,0.0,0.0,0,0.0,21.6,0.0,11.8,3.472
2009/11/02,03:50:01,143,318,138,0.1,5.3,19.9,22.1,66.9,1010.6,0.00,0,0.0,0.0,0,0.0,21.4,0.0,12.0,3.470
2009/11/02,04:00:01,154,322,137,0.1,5.1,23.2,22.0,66.7,1010.4,0.00,0,0.0,0.0,0,0.0,21.4,0.0,11.8,3.472
2009/11/02,04:10:01,159,336,145,0.1,5.8,23.3,22.1,65.8,1010.7,0.00,0,0.0,0.0,0,0.0,21.2,0.0,11.7,3.474
2009/11/02,04:20:01,153,322,134,0.0,5.2,21.4,22.1,66.2,1010.8,0.00,0,0.0,0.0,0,0.0,21.4,0.0,12.0,3.472
2009/11/02,04:30:01,142,321,141,0.1,5.0,17.8,22.1,65.9,1011.0,0.00,0,0.0,0.0,0,0.0,21.2,0.0,11.8,3.472
2009/11/02,04:40:01,143,323,137,0.0,5.0,19.2,22.1,65.1,1011.1,0.00,0,0.0,0.0,0,0.0,21.2,0.0,11.5,3.472
2009/11/02,04:50:01,157,335,142,0.2,5.4,21.4,22.1,64.0,1011.3,0.00,0,0.0,0.0,0,0.0,21.1,0.0,11.5,3.470
2009/11/02,05:00:01,154,328,142,0.1,5.1,20.9,22.0,62.4,1011.3,0.00,0,0.0,0.0,0,0.0,21.2,0.0,11.9,3.472
2009/11/02,05:10:01,168,349,161,0.2,6.4,21.7,22.0,66.5,1011.3,0.00,0,0.0,0.0,0,0.0,21.4,0.0,11.6,3.473
2009/11/02,05:20:01,172,354,159,0.2,6.4,22.7,21.8,64.6,1011.6,0.00,10,0.0,0.0,0,0.0,21.1,0.0,11.9,3.470
2009/11/02,05:30:01,182,357,178,0.2,6.3,22.5,21.7,62.2,1011.9,0.00,0,0.0,0.0,0,0.0,21.1,0.0,11.9,3.472
2009/11/02,05:40:01,179,346,168,0.2,5.9,24.6,21.7,60.0,1011.9,0.00,0,0.0,0.0,0,0.0,20.9,0.0,11.6,3.470
2009/11/02,05:50:01,156,330,144,0.1,5.2,21.1,21.7,62.3,1012.2,0.00,0,0.0,0.0,0,0.0,20.7,0.0,11.6,3.470
2009/11/02,06:00:01,172,352,166,0.1,6.3,24.3,21.6,57.2,1012.2,0.00,0,0.0,0.0,0,0.0,20.9,0.0,11.7,3.472
2009/11/02,06:10:01,181,356,166,0.2,6.3,22.1,21.7,59.3,1012.1,0.01,10,0.1,0.0,0,0.0,20.9,0.0,11.8,3.472
2009/11/02,06:20:01,176,357,168,0.1,6.5,22.1,21.6,59.1,1012.5,0.00,0,0.0,0.0,0,0.0,20.7,0.0,11.9,3.473
2009/11/02,06:30:01,184,358,173,0.1,5.9,21.0,21.5,57.4,1012.9,0.00,0,0.0,0.0,0,0.0,20.7,0.0,11.7,3.473
2009/11/02,06:40:01,177,356,172,0.1,6.3,22.6,21.5,54.7,1013.0,0.00,0,0.0,0.0,0,0.0,20.7,0.0,11.6,3.470
2009/11/02,06:50:01,169,345,166,0.1,5.6,20.3,21.5,56.0,1012.9,0.00,0,0.0,0.0,0,0.0,21.1,0.0,11.8,3.468
2009/11/02,07:00:01,170,350,166,0.1,5.7,20.0,21.4,54.8,1013.5,0.00,0,0.0,0.0,0,0.0,20.7,0.0,11.8,3.470
2009/11/02,07:10:01,171,348,169,0.1,5.5,21.7,21.6,55.9,1013.5,0.00,0,0.0,0.0,0,0.0,20.7,0.0,11.8,3.473
2009/11/02,07:20:01,171,349,160,0.1,5.9,20.7,21.5,58.1,1013.7,0.00,0,0.0,0.0,0,0.0,20.7,0.0,11.7,3.470
2009/11/02,07:30:01,180,357,173,0.1,6.5,22.8,21.5,57.6,1014.0,0.00,0,0.0,0.0,0,0.0,20.9,0.0,11.9,3.472
2009/11/02,07:40:01,168,346,161,0.2,6.0,24.4,21.6,57.2,1014.0,0.00,0,0.0,0.0,0,0.0,21.2,0.0,11.7,3.472
2009/11/02,07:50:01,177,355,173,0.1,6.3,24.7,21.5,55.1,1014.2,0.00,0,0.0,0.0,0,0.0,21.1,0.0,11.8,3.472
2009/11/02,08:00:01,180,338,155,0.1,5.7,20.7,21.6,58.0,1014.4,0.00,0,0.0,0.0,0,0.0,21.2,0.0,11.8,3.472
2009/11/02,08:10:01,177,349,163,0.2,6.2,22.2,21.6,54.3,1014.4,0.00,0,0.0,0.0,0,0.0,21.2,0.0,11.7,3.472
2009/11/02,08:20:01,160,337,144,0.1,5.5,23.1,21.4,56.7,1014.8,0.00,0,0.0,0.0,0,0.0,21.1,0.0,11.7,3.472
2009/11/02,08:30:01,156,332,154,0.3,5.6,20.4,21.6,58.6,1014.5,0.00,0,0.0,0.0,0,0.0,21.4,0.0,11.6,3.472
2009/11/02,08:40:01,154,329,138,0.1,5.6,23.1,21.8,57.5,1015.0,0.00,0,0.0,0.0,0,0.0,21.9,0.0,12.0,3.470
2009/11/02,08:50:01,132,312,131,0.0,5.4,19.7,21.7,57.1,1014.9,0.00,0,0.0,0.0,0,0.0,21.9,0.0,11.8,3.472
2009/11/02,09:00:01,145,323,141,0.1,5.5,21.6,21.5,57.7,1015.2,0.00,0,0.0,0.0,0,0.0,21.4,0.0,12.0,3.472
2009/11/02,09:10:01,158,329,149,0.1,5.8,20.9,21.5,60.6,1015.5,0.00,0,0.0,0.0,0,0.0,21.6,0.0,12.0,3.470
2009/11/02,09:20:01,161,339,140,0.0,6.0,24.0,21.4,55.5,1015.5,0.00,0,0.0,0.0,0,0.0,21.2,0.0,12.0,3.472
2009/11/02,09:30:01,159,332,140,0.2,5.8,21.0,21.7,57.9,1015.7,0.03,10,0.0,0.0,0,0.0,22.2,0.0,11.9,3.472
2009/11/02,09:40:01,142,318,133,0.1,4.9,18.6,22.0,54.1,1015.8,0.00,0,0.0,0.0,0,0.0,22.4,0.0,11.7,3.472
2009/11/02,09:50:01,137,316,136,0.1,5.0,16.1,22.0,54.9,1015.7,0.00,0,0.0,0.0,0,0.0,22.7,0.0,11.7,3.470
2009/11/02,10:00:01,142,321,137,0.2,5.0,21.8,22.1,57.2,1015.8,0.00,0,0.0,0.0,0,0.0,22.9,0.0,11.8,3.470
2009/11/02,10:10:01,142,319,136,0.4,5.1,21.7,21.7,58.6,1015.8,0.00,0,0.0,0.0,0,0.0,21.4,0.0,11.9,3.472
2009/11/02,10:20:01,160,328,142,0.1,5.4,20.6,21.9,53.1,1016.1,0.00,0,0.0,0.0,0,0.0,22.1,0.0,12.0,3.472
2009/11/02,10:30:01,164,325,138,0.1,5.2,19.2,22.2,55.0,1016.1,0.00,0,0.0,0.0,0,0.0,22.7,0.0,11.9,3.472
2009/11/02,10:40:01,143,319,139,0.3,5.1,17.4,22.0,52.1,1016.0,0.00,0,0.0,0.0,0,0.0,22.2,0.0,11.9,3.472
2009/11/02,10:50:01,145,327,142,0.2,4.9,17.1,22.4,52.0,1016.0,0.00,0,0.0,0.0,0,0.0,23.3,0.0,11.7,3.470
2009/11/02,11:00:01,144,321,143,0.2,5.0,17.5,22.3,53.2,1016.0,0.00,0,0.0,0.0,0,0.0,23.3,0.0,11.7,3.472
2009/11/02,11:10:01,146,327,140,0.3,4.8,19.2,22.5,53.6,1016.1,0.00,0,0.0,0.0,0,0.0,23.3,0.0,11.7,3.472
2009/11/02,11:20:01,154,329,144,0.1,4.8,15.0,22.3,54.5,1015.8,0.00,0,0.0,0.0,0,0.0,23.3,0.0,11.7,3.470
2009/11/02,11:30:01,159,324,141,0.1,4.7,16.7,22.3,53.5,1015.8,0.00,0,0.0,0.0,0,0.0,23.4,0.0,11.7,3.470
2009/11/02,11:40:01,136,316,132,0.3,4.9,22.8,22.3,54.4,1015.8,0.00,0,0.0,0.0,0,0.0,23.4,0.0,11.9,3.472
2009/11/02,11:50:01,137,315,135,0.0,5.1,20.4,22.3,53.4,1015.7,0.00,0,0.0,0.0,0,0.0,23.1,0.0,12.0,3.472
2009/11/02,12:00:01,123,302,122,0.1,4.9,21.3,22.0,56.9,1015.7,0.00,0,0.0,0.0,0,0.0,22.7,0.0,11.9,3.472
2009/11/02,12:10:01,114,296,113,0.2,5.0,23.7,21.9,56.8,1015.7,0.00,0,0.0,0.0,0,0.0,21.9,0.0,11.8,3.472
2009/11/02,12:20:01,132,308,128,0.4,5.6,21.8,22.1,55.5,1015.4,0.00,0,0.0,0.0,0,0.0,22.6,0.0,11.7,3.470
2009/11/02,12:30:01,124,305,120,0.2,5.4,21.9,21.9,57.6,1015.3,0.00,0,0.0,0.0,0,0.0,22.1,0.0,11.7,3.473
2009/11/02,12:40:01,144,319,138,0.2,5.7,24.9,22.3,57.1,1015.2,0.00,0,0.0,0.0,0,0.0,22.7,0.0,12.0,3.470
2009/11/02,12:50:01,134,313,122,0.4,6.8,24.1,21.7,61.5,1015.2,0.00,10,0.0,0.0,0,0.0,21.9,0.0,11.7,3.472
2009/11/02,13:00:01,129,311,124,0.3,7.5,25.7,21.5,58.4,1014.9,0.01,10,0.0,0.0,0,0.0,21.4,0.0,11.7,3.470
2009/11/02,13:10:01,137,316,131,0.3,7.2,23.9,21.8,58.5,1014.5,0.00,0,0.0,0.0,0,0.0,21.7,0.0,11.7,3.472
2009/11/02,13:20:01,145,317,136,0.3,7.3,26.7,22.0,54.5,1014.5,0.00,0,0.0,0.0,0,0.0,22.2,0.0,11.8,3.470
2009/11/02,13:30:01,142,319,138,0.3,8.2,25.4,22.1,51.5,1014.4,0.00,0,0.0,0.0,0,0.0,22.4,0.0,11.7,3.472
2009/11/02,13:40:01,156,319,138,0.1,7.9,26.7,21.8,52.6,1014.4,0.00,0,0.0,0.0,0,0.0,21.9,0.0,11.7,3.472
2009/11/02,13:50:01,139,319,134,0.1,8.0,26.0,22.0,56.7,1014.5,0.00,0,0.0,0.0,0,0.0,22.1,0.0,11.7,3.470
2009/11/02,14:00:01,144,322,134,0.4,8.2,28.2,22.0,50.0,1014.2,0.00,0,0.0,0.0,0,0.0,22.6,0.0,11.7,3.470
2009/11/02,14:10:01,148,324,144,0.5,9.2,26.1,21.7,54.8,1013.7,0.00,0,0.0,0.0,0,0.0,21.9,0.0,11.7,3.470